Regional Weather Roundup
Issued by NWS

Home | Current Version | Previous Version | Text Only | Print | Product List | Glossary On
Versions: 1 2 3 4 5 6 7 8 9 10 11 12 13 14 15 16 17 18 19 20 21 22 23 24 25 26 27 28 29 30 31 32 33 34 35 36 37 38 39 40 41 42 43 44 45 46 47 48 49 50
000
ASUS45 KABQ 181110
RWRNM
NEW MEXICO REGIONAL WEATHER ROUNDUP
NATIONAL WEATHER SERVICE ALBUQUERQUE NM
400 AM MST MON DEC 18 2017

NOTE: "FAIR" MEANS FEW OR NO CLOUDS BELOW 12,000 FEET AGL WITH NO
       SIGNIFICANT WEATHER OR OBSTRUCTIONS TO VISION.

      THIS PRODUCT IS RELEASED AS TWO VERSIONS.  ONE VERSION NEAR
      THE TOP OF THE HOUR CONTAINING PRELIMINARY DATA FROM ALBUQUERQUE
      AND OTHER STATIONS.  A FINAL VERSION WITH ADDITIONAL DATA IS
      ISSUED ABOUT 10 MINUTES AFTER THE HOUR.

NMZ501-503-504-510>518-181200-
NORTHWEST PLATEAU/NORTHCENTRAL MOUNTAINS

CITY           SKY/WX    TMP DP  RH WIND       PRES   REMARKS
FARMINGTON     FAIR      16   3  56 N7        30.16R WCI   6
LOS ALAMOS     FAIR      30   9  41 CALM      30.14S
SANTA FE       FAIR      22  20  92 N5        30.12F WCI  16
TAOS           FAIR      10   1  67 NE3       30.17R
ANGEL FIRE     FAIR       5   1  83 SW3       30.13S

$$
NMZ402-403-502-505>509-181200-
WESTCENTRAL MOUNTAINS/SOUTHWEST MOUNTAINS

CITY           SKY/WX    TMP DP  RH WIND       PRES   REMARKS
GALLUP         FAIR      13   0  56 CALM      30.13S
GRANTS         FAIR      14   4  63 NW7       30.14S WCI   4
SILVER CITY    LGT RAIN  37  35  95 NW5       30.07S WCI  33

$$
NMZ407-409-411-412-181200-
SOUTHERN DESERTS

CITY           SKY/WX    TMP DP  RH WIND       PRES   REMARKS
DEMING         LGT RAIN  41  38  89 CALM      30.07R
LAS CRUCES     FAIR      40  40 100 CALM      30.08S
HOLLOMAN AFB   FAIR      39  37  94 N5        30.10S
ALAMOGORDO       N/A     41  37  87 NW8       30.08S
T OR C         MOCLDY    36  34  92 CALM      30.09S

$$
NMZ519>523-181200-
CENTRAL VALLEYS/CENTRAL HIGHLANDS

CITY           SKY/WX    TMP DP  RH WIND       PRES   REMARKS
ALBUQUERQUE    MOCLDY    33  26  75 N12       30.09F WCI  24
MORIARTY ARPT  FAIR      20  16  83 CALM      30.12F
CLINES CORNERS FAIR      23  21  92 NW10      30.10F WCI  12
BELEN          FAIR      30  30 100 N5        30.11S WCI  26
SOCORRO        CLOUDY    34  32  93 N6        30.09F WCI  29

$$
NMZ524>526-539-540-181200-
SOUTHCENTRAL MOUNTAINS

CITY           SKY/WX    TMP DP  RH WIND       PRES   REMARKS
RUIDOSO        CLOUDY    36  32  87 SE5       30.13F WCI  32

$$
NMZ527>531-181200-
NORTHEAST HIGHLANDS/NORTHEAST PLAINS

CITY           SKY/WX    TMP DP  RH WIND       PRES   REMARKS
LAS VEGAS      FAIR      25   8  48 SW3       30.06F
RATON          FAIR      16   9  74 NE8       30.03F WCI   5
CLAYTON        FAIR      34  13  41 W15       29.98S WCI  24

$$
NMZ532>537-181200-
EASTCENTRAL PLAINS

CITY           SKY/WX    TMP DP  RH WIND       PRES   REMARKS
SANTA ROSA     FAIR      36  31  81 SW8       30.05F WCI  29
TUCUMCARI      FAIR      36  27  69 SW5       30.03S WCI  32
CANNON AFB     CLEAR     34  24  68 CALM      30.09S
CLOVIS AIRPORT FAIR      29  21  72 CALM      30.09S

$$
NMZ028-029-538-181200-
SOUTHEAST PLAINS

CITY           SKY/WX    TMP DP  RH WIND       PRES   REMARKS
ROSWELL        FAIR      40  30  67 NW7       30.06F
ARTESIA        FAIR      41  32  70 NW9       30.07S
CARLSBAD       FAIR      41  35  79 NW8       30.03F
HOBBS          FAIR      36  28  75 NE7       30.06S WCI  30


$$



USA.gov is the U.S. government's official web portal to all federal, state and local government web resources and services.